User: anonymous   Login
Location: Waldport
(44.4270°N, 124.0680°W)
Time: 16:40:23
(UTC-08:00)
Language:

Cosmos 1570 Rocket - Orbit

View from above orbital plane
View from above orbital plane
View from above satellite
View from above satellite

Ground track
Ground track

The orbit data is extracted from the following two-line orbital elements,

1 15032U 84056B   17050.93843401 +.00000064 +00000-0 +31553-4 0  9990
2 15032 074.0708 290.5529 0016585 124.7952 235.4763 14.34695116709833
Epoch (UTC): 19 February 2017 22:31:20
Eccentricity: 0.0016585
inclination: 74.0708°
perigee height: 764 km
apogee height: 788 km
right ascension of ascending node: 290.5529°
argument of perigee: 124.7952°
revolutions per day: 14.34695116
mean anomaly at epoch: 235.4763°
orbit number at epoch: 70983

The dashed part of the orbit path shows where the satellite is in the earth's shadow,  

DLR